This demonstration page uses our WeatherBlox Daily Observations layout. Learn more.

Left ArrowRight Arrow

Hourly Observations for June 28, 2020

Temp ( °F °C ) Dew Point ( °F °C ) Humidity (%) Winds ( mph kmh ) Pressure ( in mb ) Visibility ( mi km ) Precip ( " mm )
12:56 am 00:56 Clear 72 22.3 68 20.2 88 88 ESE 8 13 29.70 1006 10 16 0.00 0.00
1:56 am 01:56 Clear 72 22.1 69 20.4 90 90 ESE 8 13 29.68 1005 10 16 0.00 0.00
2:56 am 02:56 Mostly Clear 72 22.2 69 20.3 89 89 ESE 7 11 29.67 1005 10 16 0.00 0.00
3:56 am 03:56 Partly Cloudy 73 22.9 68 20 84 84 SE 10 17 29.64 1004 10 16 0.00 0.00
4:26 am 04:26 Cloudy 73 23 68 20 83 83 S 9 15 29.67 1005 10 16 0.00 0.00
4:27 am 04:27 Cloudy with Thunderstorms 73 23 68 20 83 83 S 9 15 29.68 1005 10 16 0.00 0.00
4:41 am 04:41 Cloudy with Light Rain and Nearby Thunderstorms 73 23 70 21 89 89 SSW 8 13 29.67 1005 10 16 0.00 0.00
4:56 am 04:56 Cloudy with Thunderstorms 73 22.6 70 20.9 90 90 SW 9 15 29.68 1005 10 16 0.01 0.25
5:36 am 05:36 Cloudy with Light Rain 70 21 68 20 94 94 NNE 10 17 29.62 1003 10 16 0.00 0.00
5:56 am 05:56 Cloudy with Light Rain 71 21.5 69 20.3 93 93 NE 14 22 29.56 1001 10 16 0.08 2.03
6:06 am 06:06 Cloudy with Light Rain 72 22 68 20 88 88 SSE 18 30 29.60 1003 10 16 0.00 0.00
6:56 am 06:56 Mostly Cloudy 69 20.5 65 18.6 89 89 S 12 19 29.67 1005 10 16 0.00 0.00
8:56 am 08:56 Cloudy 72 22.2 67 19.5 85 85 SE 16 26 29.65 1004 10 16 0.00 0.00
9:56 am 09:56 Sunny 76 24.2 69 20.5 80 80 SSE 9 15 29.66 1004 10 16 0.00 0.00
10:56 am 10:56 Sunny 80 26.5 71 21.7 75 75 SSE 13 20 29.64 1004 10 16 0.00 0.00
11:56 am 11:56 Sunny 84 29 72 22 66 66 S 15 24 29.62 1003 10 16 0.00 0.00
12:56 pm 12:56 Partly Cloudy 85 29.3 73 22.7 68 68 SE 15 24 29.62 1003 10 16 0.00 0.00
1:10 pm 13:10 Mostly Cloudy 84 29 73 23 70 70 S 13 20 29.62 1003 10 16 0.00 0.00
1:39 pm 13:39 Cloudy 84 29 75 24 74 74 ESE 14 22 29.62 1003 10 16 0.00 0.00
1:53 pm 13:53 Cloudy 86 30 75 24 70 70 SSE 16 26 29.62 1003 10 16 0.00 0.00
1:56 pm 13:56 Cloudy 86 30 75 23.9 70 70 SSE 17 28 29.62 1003 10 16 0.00 0.00
2:56 pm 14:56 Mostly Cloudy 89 31.4 76 24.5 67 67 SSE 22 35 29.60 1002 10 16 0.00 0.00
3:56 pm 15:56 Mostly Cloudy 89 31.5 76 24.3 66 66 SSE 20 31 29.59 1002 10 16 0.00 0.00
4:56 pm 16:56 Sunny 88 31.1 77 24.9 70 70 SSE 18 30 29.59 1002 10 16 0.00 0.00
5:56 pm 17:56 Sunny 88 30.9 75 24 67 67 SE 15 24 29.58 1002 10 16 0.00 0.00
6:56 pm 18:56 Sunny 86 30.2 74 23.6 68 68 SSE 16 26 29.59 1002 10 16 0.00 0.00
7:56 pm 19:56 Mostly Sunny 86 29.8 75 23.7 70 70 SE 15 24 29.59 1002 10 16 0.00 0.00
8:56 pm 20:56 Partly Cloudy 84 29.1 73 23 70 70 SE 14 22 29.60 1002 10 16 0.00 0.00
9:56 pm 21:56 Mostly Clear 83 28.2 73 22.9 73 73 SE 15 24 29.62 1003 10 16 0.00 0.00
10:56 pm 22:56 Mostly Clear 83 28.1 73 22.8 73 73 SSE 17 28 29.62 1003 10 16 0.00 0.00
11:56 pm 23:56 Clear 82 27.6 73 22.7 75 75 SSE 18 30 29.62 1003 10 16 0.00 0.00

Powered by AerisWeather